TimeEDT,TemperatureF,Dew PointF,Humidity,Sea Level PressureIn,VisibilityMPH,Wind Direction,Wind SpeedMPH,Gust SpeedMPH,PrecipitationIn,Events,Conditions,WindDirDegrees,DateUTC
12:15 AM,39.7,28.4,64,30.16,10.0,West,5.8,-,N/A,,Clear,270,2013-03-28 04:15:00
12:35 AM,39.4,28.4,65,30.16,10.0,West,5.8,-,N/A,,Clear,280,2013-03-28 04:35:00
12:55 AM,40.1,28.4,63,30.16,10.0,West,9.2,-,N/A,,Clear,280,2013-03-28 04:55:00
1:15 AM,40.6,27.7,60,30.16,10.0,West,8.1,-,N/A,,Clear,280,2013-03-28 05:15:00
1:35 AM,40.3,27.9,61,30.16,10.0,West,9.2,-,N/A,,Clear,280,2013-03-28 05:35:00
1:55 AM,39.4,28.6,65,30.16,10.0,West,8.1,-,N/A,,Clear,270,2013-03-28 05:55:00
2:15 AM,39.7,28.4,64,30.16,10.0,West,8.1,-,N/A,,Clear,280,2013-03-28 06:15:00
2:35 AM,39.7,28.4,64,30.15,10.0,West,9.2,-,N/A,,Clear,280,2013-03-28 06:35:00
2:55 AM,39.4,29.3,67,30.15,10.0,West,6.9,-,N/A,,Clear,280,2013-03-28 06:55:00
3:15 AM,39.2,29.1,67,30.15,10.0,West,4.6,-,N/A,,Clear,280,2013-03-28 07:15:00
3:35 AM,38.5,29.3,70,30.15,10.0,WNW,3.5,-,N/A,,Mostly Cloudy,300,2013-03-28 07:35:00
3:55 AM,38.3,28.9,69,30.15,10.0,WNW,3.5,-,N/A,,Scattered Clouds,300,2013-03-28 07:55:00
4:15 AM,37.8,29.1,71,30.15,10.0,West,3.5,-,N/A,,Scattered Clouds,270,2013-03-28 08:15:00
4:35 AM,36.7,28.4,72,30.15,10.0,West,4.6,-,N/A,,Mostly Cloudy,280,2013-03-28 08:35:00
4:55 AM,36.1,28.8,75,30.14,10.0,West,3.5,-,N/A,,Scattered Clouds,280,2013-03-28 08:55:00
5:15 AM,34.2,28.2,79,30.14,10.0,Calm,Calm,-,N/A,,Clear,0,2013-03-28 09:15:00
5:35 AM,34.5,28.2,78,30.14,10.0,Calm,Calm,-,N/A,,Clear,0,2013-03-28 09:35:00
5:55 AM,35.8,28.2,74,30.14,10.0,West,3.5,-,N/A,,Clear,260,2013-03-28 09:55:00
6:15 AM,33.1,27.5,80,30.15,10.0,Calm,Calm,-,N/A,,Scattered Clouds,0,2013-03-28 10:15:00
6:35 AM,33.4,27.0,77,30.15,10.0,Calm,Calm,-,N/A,,Mostly Cloudy,0,2013-03-28 10:35:00
6:55 AM,30.4,26.8,86,30.15,10.0,Calm,Calm,-,N/A,,Mostly Cloudy,0,2013-03-28 10:55:00
7:15 AM,34.5,29.1,81,30.15,10.0,WNW,3.5,-,N/A,,Mostly Cloudy,300,2013-03-28 11:15:00
7:35 AM,34.3,29.5,82,30.16,10.0,Calm,Calm,-,N/A,,Overcast,0,2013-03-28 11:35:00
7:55 AM,37.6,30.6,76,30.16,10.0,West,4.6,-,N/A,,Overcast,280,2013-03-28 11:55:00
8:15 AM,38.3,30.2,73,30.16,10.0,West,6.9,-,N/A,,Scattered Clouds,270,2013-03-28 12:15:00
8:35 AM,40.3,30.6,68,30.16,10.0,West,5.8,-,N/A,,Clear,270,2013-03-28 12:35:00
8:55 AM,42.3,30.2,62,30.17,10.0,West,11.5,17.3,N/A,,Scattered Clouds,270,2013-03-28 12:55:00
9:15 AM,43.0,29.3,59,30.17,10.0,West,9.2,-,N/A,,Scattered Clouds,280,2013-03-28 13:15:00
9:35 AM,45.0,30.7,57,30.17,10.0,West,8.1,-,N/A,,Clear,280,2013-03-28 13:35:00
9:55 AM,47.3,30.4,52,30.17,10.0,West,10.4,16.1,N/A,,Clear,280,2013-03-28 13:55:00
10:15 AM,48.2,29.1,48,30.16,10.0,NW,11.5,18.4,N/A,,Clear,310,2013-03-28 14:15:00
10:35 AM,48.0,28.9,48,30.17,10.0,WNW,9.2,19.6,N/A,,Mostly Cloudy,300,2013-03-28 14:35:00
10:55 AM,49.8,29.5,46,30.17,10.0,NNW,8.1,19.6,N/A,,Overcast,330,2013-03-28 14:55:00
11:15 AM,50.0,29.1,45,30.17,10.0,NW,11.5,20.7,N/A,,Mostly Cloudy,320,2013-03-28 15:15:00
11:35 AM,49.3,29.8,47,30.17,10.0,NW,8.1,-,N/A,,Mostly Cloudy,320,2013-03-28 15:35:00
11:55 AM,51.1,29.5,43,30.16,10.0,NW,10.4,-,N/A,,Scattered Clouds,320,2013-03-28 15:55:00
12:15 PM,51.6,28.9,42,30.16,10.0,NNW,11.5,21.9,N/A,,Scattered Clouds,330,2013-03-28 16:15:00
12:35 PM,52.0,28.9,41,30.16,10.0,WNW,10.4,20.7,N/A,,Scattered Clouds,300,2013-03-28 16:35:00
12:55 PM,51.6,27.9,40,30.15,10.0,NW,9.2,19.6,N/A,,Mostly Cloudy,310,2013-03-28 16:55:00
1:15 PM,50.9,27.9,41,30.15,10.0,WNW,9.2,19.6,N/A,,Overcast,300,2013-03-28 17:15:00
1:35 PM,50.7,28.2,42,30.14,10.0,WNW,9.2,16.1,N/A,,Overcast,300,2013-03-28 17:35:00
1:55 PM,51.3,28.8,42,30.14,10.0,NW,10.4,18.4,N/A,,Overcast,310,2013-03-28 17:55:00
2:15 PM,50.4,28.4,43,30.14,10.0,NW,12.7,18.4,N/A,,Overcast,320,2013-03-28 18:15:00
2:35 PM,50.9,28.6,42,30.14,10.0,WNW,9.2,17.3,N/A,,Overcast,300,2013-03-28 18:35:00
2:55 PM,49.3,28.9,45,30.14,10.0,WNW,13.8,20.7,N/A,,Overcast,290,2013-03-28 18:55:00
3:15 PM,50.4,28.9,44,30.14,10.0,North,8.1,-,N/A,,Overcast,10,2013-03-28 19:15:00
3:35 PM,49.6,29.3,46,30.14,10.0,NNW,6.9,-,N/A,,Overcast,330,2013-03-28 19:35:00
3:55 PM,50.2,29.7,45,30.14,10.0,NW,3.5,-,N/A,,Overcast,320,2013-03-28 19:55:00
4:15 PM,51.3,28.9,42,30.14,10.0,NW,8.1,18.4,N/A,,Overcast,310,2013-03-28 20:15:00
4:35 PM,51.4,28.6,41,30.14,10.0,NW,8.1,20.7,N/A,,Overcast,320,2013-03-28 20:35:00
4:55 PM,50.7,28.4,42,30.14,10.0,NW,8.1,17.3,N/A,,Overcast,320,2013-03-28 20:55:00
5:15 PM,50.0,29.8,46,30.16,10.0,NW,12.7,19.6,N/A,,Overcast,320,2013-03-28 21:15:00
5:35 PM,49.3,30.6,49,30.16,10.0,NW,10.4,19.6,N/A,,Overcast,310,2013-03-28 21:35:00
5:55 PM,50.4,31.1,48,30.16,10.0,NW,8.1,16.1,N/A,,Overcast,310,2013-03-28 21:55:00
6:15 PM,50.4,29.3,44,30.17,10.0,NW,6.9,18.4,N/A,,Overcast,310,2013-03-28 22:15:00
6:35 PM,50.0,29.8,46,30.18,10.0,NW,9.2,-,N/A,,Overcast,310,2013-03-28 22:35:00
6:55 PM,49.1,30.2,48,30.19,10.0,NNW,5.8,-,N/A,,Overcast,340,2013-03-28 22:55:00
7:15 PM,48.2,30.6,51,30.20,10.0,NNW,4.6,-,N/A,,Overcast,340,2013-03-28 23:15:00
7:35 PM,47.7,31.1,53,30.21,10.0,NW,5.8,-,N/A,,Overcast,320,2013-03-28 23:35:00
7:55 PM,46.0,31.5,57,30.21,10.0,NW,3.5,-,N/A,,Mostly Cloudy,320,2013-03-28 23:55:00
8:15 PM,46.2,31.5,56,30.22,10.0,NW,4.6,-,N/A,,Mostly Cloudy,320,2013-03-29 00:15:00
8:35 PM,45.1,31.1,58,30.22,10.0,NW,3.5,-,N/A,,Mostly Cloudy,310,2013-03-29 00:35:00
8:55 PM,45.3,31.1,58,30.23,10.0,Calm,Calm,-,N/A,,Mostly Cloudy,0,2013-03-29 00:55:00
9:15 PM,44.6,30.9,59,30.23,10.0,NW,3.5,-,N/A,,Scattered Clouds,310,2013-03-29 01:15:00
9:35 PM,44.1,30.9,60,30.24,10.0,NW,3.5,-,N/A,,Scattered Clouds,320,2013-03-29 01:35:00
9:55 PM,43.3,31.1,62,30.25,10.0,NNW,3.5,-,N/A,,Scattered Clouds,330,2013-03-29 01:55:00
10:15 PM,42.1,31.5,66,30.25,10.0,Calm,Calm,-,N/A,,Scattered Clouds,0,2013-03-29 02:15:00
10:35 PM,41.7,31.5,67,30.25,10.0,WNW,3.5,-,N/A,,Clear,300,2013-03-29 02:35:00
10:55 PM,41.4,30.7,66,30.26,10.0,NW,3.5,-,N/A,,Clear,310,2013-03-29 02:55:00
11:15 PM,40.6,31.1,69,30.26,10.0,NW,3.5,-,N/A,,Clear,310,2013-03-29 03:15:00
11:35 PM,40.6,30.6,67,30.26,10.0,WNW,5.8,-,N/A,,Clear,290,2013-03-29 03:35:00
11:55 PM,39.4,31.1,72,30.26,10.0,Calm,Calm,-,N/A,,Clear,0,2013-03-29 03:55:00